Tracking 19146 objects as of 24-Apr-2018
HD Live streaming from Space Station
objects crossing your sky now

SL-16 DEB

Track SL-16 DEB now!
10-day predictions


NORAD ID: 22336
Int'l Code: 1992-093Z
Perigee: 840.6 km
Apogee: 1,012.2 km
Inclination: 71.1 °
Period: 103.4 minutes
Semi major axis: 7297 km
RCS: 0.2247 m2 (medium)
Launch date: December 25, 1992
Source: Commonwealth of Independent States (former USSR) (CIS)
Launch site: TYURATAM MISSILE AND SPACE COMPLEX (TTMTR)

Note: This is SATELLITE DEBRIS
aabbcc
Your satellite tracking list
Your tracking list is empty




NASA's NSSDC Master Catalog

Two Line Element Set (TLE):
1 22336U 92093Z   18113.36477061 +.00000168 +00000-0 +15491-3 0  9995
2 22336 071.1303 094.2319 0117594 128.2338 335.4133 13.92668596282813
Source of the keplerian elements: AFSPC